Tracking 34706 objects as of 10-Jul-2026
HD Live streaming from Space Station
objects crossing your sky now

STARLINK-37781

Track STARLINK-37781 now!
10-day predictions
STARLINK-37781 is classified as:


NORAD ID: 69341
Int'l Code: 2026-122N
Perigee: 472.0 km
Apogee: 473.2 km
Inclination: 97.3 °
Period: 93.9 minutes
Semi major axis: 6843 km
RCS: Unknown
Launch date: June 3, 2026
Source: United States (US)
Launch site: AIR FORCE WESTERN TEST RANGE (AFWTR)
Your satellite tracking list
Your tracking list is empty




NASA's NSSDC Master Catalog

Two Line Element Set (TLE):
1 69341U 26122N   26191.25002315 -.00044644  00000-0 -13878-2 0  9996
2 69341  97.2851 220.9042 0000878 114.3981  18.4344 15.33466287  6001
Source of the keplerian elements: AFSPC